Regional Weather Roundup
Issued by NWS Nashville, TN

Current Version | Previous Version | Text Only | Print | Product List | Glossary Off
Versions: 1 2 3 4 5 6 7 8 9 10 11 12 13 14 15 16 17 18 19 20 21 22 23 24 25 26 27 28 29 30 31 32 33 34 35 36 37 38 39 40 41 42 43 44 45 46 47 48 49 50

000
ASUS44 KOHX 260215
RWROHX
MIDDLE TENNESSEE HOURLY WEATHER ROUNDUP
NATIONAL WEATHER SERVICE NASHVILLE TN
800 PM CST SUN JAN 25 2015

NOTE: "FAIR" INDICATES FEW OR NO CLOUDS BELOW 12,000 FEET WITH
NO SIGNIFICANT WEATHER AND/OR OBSTRUCTIONS TO VISIBILITY.

* THESE REPORTS ARE NOT UNDER NWS QUALITY CONTROL AND MAY NOT
  REPORT WEATHER SUCH AS PRECIPITATION AND FOG.


TNZ005>011-023>034-057-059-062>066-078-080-260300
...NORTHERN MIDDLE TENNESSEE...

CITY           SKY/WX    TMP DP  RH WIND       PRES   REMARKS
CLARKSVILLE    LGT RAIN  44  41  89 W12       29.70S
CROSSVILLE     CLOUDY    43  38  82 SW7G17    29.70R
GALLATIN       CLOUDY    43  43 100 NW13G28   29.71R
DICKSON        CLOUDY    43  43 100 W8        29.71R
LEBANON        CLOUDY    45  41  86 SW6       29.69
LIVINGSTON     CLOUDY    44  42  93 SW8       29.68
NASHVILLE      CLOUDY    47  42  83 VRB5      29.71S
WEST NASHVILLE CLOUDY    45  45 100 SW8       29.71S
PORTLAND       CLOUDY    37  37 100 W9        29.69R WCI  31
SMYRNA         CLOUDY    46  42  86 W8        29.73R
SPARTA         MOCLDY    45  43  93 W7        29.70R
$$
TNZ056-058-060-061-075>077-079-093>097-260300
...SOUTHERN MIDDLE TENNESSEE...

CITY           SKY/WX    TMP DP  RH WIND       PRES   REMARKS
COLUMBIA       CLOUDY    46  46 100 W12       29.73R
LEWISBURG      CLOUDY    45  41  86 W7        29.73S
MCMINNVILLE    MOCLDY    43  43 100 SW3       29.72S
MURFREESBORO   CLOUDY    45  42  89 SW5       29.72R
SHELBYVILLE    CLOUDY    43  43 100 S5        29.74S
TULLAHOMA      MOCLDY    43  39  87 W3        29.73F
WINCHESTER     MOCLDY    43  39  87 NW6       29.74R
$$


...KEY TO REMARKS...
VSB - VISIBILITY IN MILES
WCI - WIND CHILL INDEX
HX  - HEAT INDEX




USA.gov is the U.S. government's official web portal to all federal, state and local government web resources and services.